Regional Weather Roundup
Issued by NWS

Home | Current Version | Previous Version | Text Only | Print | Product List | Glossary Off
Versions: 1 2 3 4 5 6 7 8 9 10 11 12 13 14 15 16 17 18 19 20 21 22 23 24 25 26 27 28 29 30 31 32 33 34 35 36 37 38 39 40 41 42 43 44 45 46 47 48 49 50

000
ASUS45 KSLC 291410
RWRUT

UTAH REGIONAL WEATHER ROUNDUP
NATIONAL WEATHER SERVICE SALT LAKE CITY UT
800 AM MDT SUN MAR 29 2015

UTZ001>011-023>025-291500-

NORTHERN UTAH

CITY           SKY/WX    TMP DP  RH WIND       PRES   REMARKS
BRIGHAM CITY   CLEAR     33  23  65 CALM      30.33R
HILL AFB       CLEAR     39  19  43 SE9       30.31R WCI  33
LOGAN          CLEAR     29  23  78 CALM      30.34R
OGDEN          CLEAR     36  20  52 S9        30.30R WCI  29
PROVO AIRPORT  CLEAR     37  27  65 S6        30.33R WCI  33
SALT LAKE CITY CLEAR     39  26  59 S6        30.31R WCI  35
VERNAL         CLEAR     47  15  27 NE6       30.30R
WENDOVER       PTCLDY    37  19  48 CALM      30.32R
HEBER CITY     CLEAR     27  21  80 CALM      30.33R
WEST JORDAN    CLEAR     37  23  56 CALM      30.33R

$$

UTZ012>022-026-027-291500-

SOUTHERN/CENTRAL UTAH

CITY           SKY/WX    TMP DP  RH WIND       PRES   REMARKS
BLANDING       CLEAR     47  23  38 N5        30.31R
BRYCE CANYON   PTCLDY    28  23  81 W7        30.35R WCI  21
CEDAR CITY     CLEAR     39  24  55 CALM      30.28R
DELTA          PTCLDY    33  18  54 CALM      30.31R
HANKSVILLE     MOCLDY    41  23  48 E5        30.24R
MILFORD        CLEAR     33  15  47 N6        30.30R WCI  28
MOAB/CYNLANDS  CLEAR     47  20  34 CALM      30.21R
PRICE          CLEAR     47  12  24 N7        30.29R
ST GEORGE      SUNNY     54  25  32 SE6       30.18R
KANAB          CLEAR     37  27  65 NE8       30.27R WCI  31

$$

REGIONAL REPORTS     COLORADO/ARIZONA

CITY           SKY/WX    TMP DP  RH WIND       PRES   REMARKS
CRAIG, CO      SUNNY     33  22  63 CALM      30.35R
GRAND JUNCTION SUNNY     55  12  18 NE14G21   30.24R
RIFLE          MOSUNNY   40  19  43 NE3       30.32R
MONTROSE       MOSUNNY   45  26  47 E7        30.29R
CORTEZ         SUNNY     39  24  55 E5        30.26R
PAGE, AZ       CLEAR     59  22  24 CALM      30.20R
GRAND CANYON   PTCLDY    29  21  72 CALM      30.31R
KINGMAN        CLEAR     53  24  32 S8        30.13R
FLAGSTAFF      CLEAR     33  22  63 CALM      30.32R

$$

REGIONAL REPORTS    NEVADA/IDAHO/WYOMING

CITY           SKY/WX    TMP DP  RH WIND       PRES   REMARKS
LAS VEGAS, NV  PTCLDY    62  20  19 S10       30.05R
ELY            PTCLDY    24  11  57 S10       30.35R WCI  14
ELKO           PTCLDY    26  13  57 E3        30.33S
POCATELLO, ID  CLEAR     29  18  63 CALM      30.34S
BURLEY         CLEAR     29  22  75 CALM      30.32R
EVANSTON, WY   PTCLDY    32  17  54 CALM      30.34R
ROCK SPRINGS   PTCLDY    32  17  54 SW5       30.36R WCI  27

$$



USA.gov is the U.S. government's official web portal to all federal, state and local government web resources and services.